UTC  calendar date,Angular Size (deg),Planetographic Subspacecraft Longitude (deg),Planetographic Subspacecraft Latitude (deg),Sub-Point Radius (km),Observer Distance (km),Phase Angle (deg),Planetographic solar Longitude (deg),Planetographic solar Latitude (deg)
2017-07-10 20:54:51.000000 UTC,16.53800236,50.13007262,35.88952868,70068.43946237,427138.8620821,113.83506173,292.5597328,-2.88873014
2017-07-10 21:04:51.000000 UTC,16.95402758,56.212107,36.52128297,70022.39734833,415074.37246314,113.70355469,298.60459619,-2.88874091
2017-07-10 21:14:51.000000 UTC,17.39661496,62.29665136,37.18565316,69973.47150651,402877.65998037,113.56204193,304.64945958,-2.88875167
2017-07-10 21:24:51.000000 UTC,17.86852541,68.38400883,37.88562055,69921.38579859,390543.5030832,113.40941275,310.69432297,-2.88876243
2017-07-10 21:34:51.000000 UTC,18.37292386,74.47453595,38.62456165,69865.8287895,378066.3341096,113.24438948,316.73918636,-2.88877319
2017-07-10 21:44:51.000000 UTC,18.91345663,80.56865525,39.40631765,69806.44823956,365440.21020379,113.06549538,322.78404975,-2.88878395
2017-07-10 21:54:51.000000 UTC,19.49434726,86.66687164,40.23527916,69742.84463647,352658.78206574,112.8710149,328.82891313,-2.88879471
2017-07-10 22:04:51.000000 UTC,20.12051623,92.76979404,41.11649058,69674.5636093,339715.26080083,112.65894427,334.87377652,-2.88880547
2017-07-10 22:14:51.000000 UTC,20.79773182,98.87816421,42.05577929,69601.08705864,326602.38324874,112.42692941,340.9186399,-2.88881623
2017-07-10 22:24:51.000000 UTC,21.53280196,104.99289602,43.05991709,69521.82284928,313312.37670585,112.17218738,346.96350329,-2.88882699
2017-07-10 22:34:51.000000 UTC,22.33382062,111.11512952,44.13682368,69436.09296035,299836.92449409,111.89140613,353.00836667,-2.88883775
2017-07-10 22:44:51.000000 UTC,23.2104876,117.24630722,45.29582542,69343.12011165,286167.1348144,111.58061526,359.05323005,-2.8888485
2017-07-10 22:54:51.000000 UTC,24.1745285,123.38828364,46.54798783,69242.01315111,272293.51696679,111.23501786,5.09809343,-2.88885926
2017-07-10 23:04:51.000000 UTC,25.24025319,129.54348701,47.90654737,69131.75202073,258205.97140439,110.84876928,11.14295681,-2.88887002
2017-07-10 23:14:51.000000 UTC,26.42530862,135.71516424,49.38747881,69011.17415497,243893.80411503,110.41468276,17.18782019,-2.88888078
2017-07-10 23:24:51.000000 UTC,27.75170897,141.90776471,51.01025018,68878.96615035,229345.78234701,109.92383288,23.23268357,-2.88889154
2017-07-10 23:34:51.000000 UTC,29.24726805,148.12756441,52.798841,68733.66833003,214550.2591772,109.3650144,29.27754695,-2.8889023
2017-07-10 23:44:51.000000 UTC,30.94762699,154.3837277,54.78313566,68573.70707496,199495.41240506,108.72399323,35.32241032,-2.88891305
2017-07-10 23:54:51.000000 UTC,32.89918002,160.69021368,57.00086033,68397.48376368,184169.67338767,107.98245444,41.3672737,-2.88892381
2017-07-11 00:04:51.000000 UTC,35.16338581,167.06943451,59.50031904,68203.57638819,168562.47434371,107.11650134,47.41213707,-2.88893457
2017-07-11 00:14:51.000000 UTC,37.82326425,173.55989049,62.34432173,67991.16356565,152665.53731044,106.09447919,53.45700045,-2.88894533
2017-07-11 00:24:51.000000 UTC,40.99342107,180.23395526,65.61589841,67760.88742827,136475.10249922,104.87376781,59.50186382,-2.88895608
2017-07-11 00:34:51.000000 UTC,44.83588762,187.246055,69.42661804,67516.58507413,119995.82825704,103.39597935,65.5467272,-2.88896684
2017-07-11 00:44:51.000000 UTC,49.58569079,194.99587643,73.9280257,67268.73898988,103247.76433196,101.57967222,71.59159057,-2.8889776
2017-07-11 00:54:51.000000 UTC,55.59266297,204.93470832,79.32013048,67041.28678015,86279.21235084,99.30921971,77.63645394,-2.88898835
2017-07-11 01:04:51.000000 UTC,63.38897294,228.98564483,85.70893636,66884.69191388,69191.4617589,96.41797698,83.68131731,-2.88899911
2017-07-11 01:14:51.000000 UTC,73.78865813,2.12417984,84.79766825,66899.050381,52189.03692888,92.66441415,89.72618068,-2.88900987
2017-07-11 01:24:51.000000 UTC,87.97797222,24.53058987,74.000517,67265.15389507,35688.59288084,87.70768161,95.77104405,-2.88902062
2017-07-11 01:34:51.000000 UTC,107.27672438,34.39261667,59.03211079,68239.44463118,20567.73979517,81.14120579,101.81590742,-2.88903138
2017-07-11 01:44:51.000000 UTC,130.92206935,42.25080566,38.09324151,69905.83387606,8700.30808072,72.9380085,107.86077078,-2.88904213
2017-07-11 01:54:51.000000 UTC,145.5202927,49.49707156,10.26777018,71366.70919625,3489.13556314,65.45316248,113.90563415,-2.88905289
2017-07-11 02:04:51.000000 UTC,130.26928452,56.56855382,-18.67579775,71083.21264621,7718.50940274,63.89744155,119.95049752,-2.88906364
2017-07-11 02:14:51.000000 UTC,106.71913514,63.70115081,-41.07554167,69677.75102009,19453.09155129,67.47509712,125.99536088,-2.8890744
2017-07-11 02:24:51.000000 UTC,87.59654755,71.11625418,-56.74759856,68417.43547575,34922.47773629,72.04881588,132.04022425,-2.88908515
2017-07-11 02:34:51.000000 UTC,73.53245062,79.17405394,-67.96750823,67606.73902338,51870.02434717,76.1073091,138.08508762,-2.88909591
2017-07-11 02:44:51.000000 UTC,63.21185527,88.75695483,-76.34926343,67156.54753375,69277.46723212,79.4651691,144.12995098,-2.88910666
2017-07-11 02:54:51.000000 UTC,55.46548496,103.10567249,-82.78902743,66940.2158381,86697.06765535,82.2234116,150.17481434,-2.88911741
2017-07-11 03:04:51.000000 UTC,49.49100525,145.62138771,-87.3484355,66865.74025608,103928.20397251,84.5093823,156.21967771,-2.88912817
2017-07-11 03:14:51.000000 UTC,44.76312307,240.96539588,-86.46300587,66874.87212646,120881.79927605,86.42829624,162.26454107,-2.88913892
2017-07-11 03:24:51.000000 UTC,40.9359722,266.06567571,-83.13568008,66932.18571076,137521.78158217,88.06014802,168.30940443,-2.88914967
2017-07-11 03:34:51.000000 UTC,37.77685906,277.85891213,-80.06860882,67016.34670629,153838.2493334,89.46476051,174.35426779,-2.88916043
2017-07-11 03:44:51.000000 UTC,35.12516787,286.63042572,-77.35927945,67114.50719708,169834.45042219,90.68704184,180.39913116,-2.88917118
2017-07-11 03:54:51.000000 UTC,32.8671804,294.26964331,-74.96166029,67218.92010508,185520.16585213,91.76106928,186.44399452,-2.88918193
2017-07-11 04:04:51.000000 UTC,30.92045094,301.36459109,-72.82541006,67324.92466577,200908.23226691,92.71303991,192.48885788,-2.88919269
2017-07-11 04:14:51.000000 UTC,29.22390329,308.15622841,-70.90818845,67429.74476544,216012.67565777,93.56336317,198.53372124,-2.88920344
2017-07-11 04:24:51.000000 UTC,27.73140476,314.76138654,-69.17578235,67531.76530203,230847.70325616,94.32814582,204.5785846,-2.88921419
2017-07-11 04:34:51.000000 UTC,26.40749744,321.24356264,-67.60064783,67630.09114244,245427.16583835,95.02025423,210.62344796,-2.88922494
2017-07-11 04:44:51.000000 UTC,25.22449859,327.64024742,-66.16048284,67724.27498733,259764.28295396,95.65008291,216.66831132,-2.8892357
2017-07-11 04:54:51.000000 UTC,24.16048967,333.97501529,-64.83707684,67814.14753435,273871.51699622,96.22611749,222.71317468,-2.88924645
2017-07-11 05:04:51.000000 UTC,23.1978947,340.26344306,-63.6154257,67899.71044819,287760.5315105,96.75535222,228.75803804,-2.8892572
2017-07-11 05:14:51.000000 UTC,22.32245734,346.51624355,-62.48305769,67981.06840353,301442.19673135,97.24360345,234.8029014,-2.88926795
2017-07-11 05:24:51.000000 UTC,21.52249293,352.74103189,-61.42951902,68058.38573185,314926.62072116,97.69574774,240.84776475,-2.8892787
2017-07-11 05:34:51.000000 UTC,20.7883334,358.94337345,-60.44597857,68131.85872961,328223.19343125,98.11590467,246.89262811,-2.88928945
2017-07-11 05:44:51.000000 UTC,20.11190968,5.1274328,-59.52492163,68201.69802722,341340.6362899,98.5075788,252.93749147,-2.8893002
2017-07-11 05:54:51.000000 UTC,19.48643355,11.29639038,-58.65991038,68268.11746859,354287.05297896,98.87377082,258.98235483,-2.88931095
2017-07-11 06:04:51.000000 UTC,18.90615252,17.45271847,-57.84539499,68331.32722593,367069.97893242,99.21706548,265.02721819,-2.8893217
2017-07-11 06:14:51.000000 UTC,18.3661589,23.59836903,-57.07656326,68391.52967759,379696.42832189,99.53970178,271.07208155,-2.88933245
2017-07-11 06:24:51.000000 UTC,17.86223954,29.73490466,-56.34922001,68448.91708749,392172.93780004,99.84362927,277.1169449,-2.8893432
2017-07-11 06:34:51.000000 UTC,17.39075669,35.86359169,-55.65968951,68503.67045499,404505.6068258,100.13055385,283.16180826,-2.88935395
2017-07-11 06:44:51.000000 UTC,16.94855247,41.98546778,-55.00473607,68555.95911768,416700.13455204,100.40197496,289.20667162,-2.8893647
2017-07-11 06:54:51.000000 UTC,16.53287188,48.10139168,-54.38149877,68605.94083074,428761.85340811,100.65921622,295.25153498,-2.88937545
Kernels Used,,,,,,,,
pds/data/jno-j_e_ss-spice-6-v1.0/jnosp_1000/extras/mk/juno_2017_v03.tm,,,,,,,,
